Dewpoint
49 49 49 50 51 51 51 53 54 54 54 54 54 55 55 56 57 58 57 57 58 59 61 61 62 61 59 58 57 56 57 57 58 58 58 58 58 58 58 58 58 58 58 58 58 58 58 58 58 58 58 58 58 58 58 58 58 57 57 56 55 54 54 53 51 50 50 49 49 49 49 49 49 49 49 49 49 49 49 48 48 48 48 48 48 48
49 48 49 49 50 51 52 53 54 54 54 54 54 55 55 55 56 56 57 57 58 59 60 61 61 61 61 59 58 56 56 57 57 58 58 58 58 58 58 58 58 58 58 58 58 58 58 58 58 58 57 57 57 57 57 57 57 56 56 55 54 54 53 52 51 50 49 49 49 49 49 49 49 49 49 49 49 49 48 48 48 48 47 47 47 47
47 47 48 49 50 51 51 52 53 54 54 54 54 55 55 55 55 55 55 56 58 59 59 59 60 60 61 60 58 57 56 57 57 57 58 58 58 58 58 58 58 58 58 58 58 58 57 57 57 57 56 56 56 56 56 56 55 55 54 54 54 53 52 51 50 49 49 49 49 49 49 49 49 49 48 48 48 48 48 48 47 47 47 47 47 47
47 47 47 48 49 50 51 52 52 53 54 54 54 55 55 55 54 54 55 56 57 58 58 59 59 59 60 61 60 58 56 56 57 57 58 58 58 58 58 58 58 58 58 58 57 57 57 56 56 56 56 55 55 55 55 54 54 54 53 53 52 51 51 50 49 49 49 49 49 49 49 49 48 48 48 48 48 47 47 47 47 46 46 47 47 47
47 47 47 48 48 49 50 51 51 52 53 53 54 54 54 54 54 54 54 55 56 56 57 57 58 59 59 60 60 58 56 56 57 57 57 58 58 58 58 58 58 58 58 57 57 56 56 56 55 55 55 55 54 54 54 53 53 53 52 51 51 50 50 49 49 49 49 49 49 49 48 48 47 47 47 47 47 47 47 47 46 46 46 46 46 46
47 47 47 47 48 48 48 49 50 50 51 51 52 52 53 53 53 53 54 54 55 55 55 55 56 57 58 58 58 58 56 56 57 57 57 57 57 57 57 57 57 57 57 57 56 56 55 55 55 54 54 54 54 53 53 52 52 51 51 50 50 49 49 49 49 49 48 48 48 48 47 47 47 47 46 47 47 47 47 47 47 46 46 46 46 46
46 47 47 47 47 46 47 47 49 49 50 50 50 50 50 50 51 51 52 53 53 53 54 54 55 55 56 56 56 56 56 56 56 56 56 56 57 57 57 57 57 56 56 56 56 55 55 55 54 54 54 54 53 53 52 52 51 50 50 49 49 49 48 48 48 48 48 47 47 46 46 46 46 46 46 47 47 47 47 47 47 46 46 46 46 45
46 46 46 46 45 45 46 46 47 49 49 49 49 49 48 49 49 49 50 51 52 52 53 53 54 54 54 55 56 56 57 57 57 57 56 56 56 56 56 56 56 55 55 55 55 54 54 54 54 54 53 53 52 52 51 51 50 50 49 49 49 48 48 48 48 47 47 47 46 46 45 45 45 45 46 46 47 47 47 47 46 46 45 45 45 45
46 45 45 45 45 45 45 45 46 48 49 49 49 49 48 48 47 48 49 49 50 51 52 52 52 52 52 54 55 56 56 57 57 57 57 57 56 56 56 55 55 55 54 54 54 54 54 54 53 53 53 52 52 52 51 50 50 49 49 49 48 48 48 48 48 47 47 47 46 46 45 45 45 45 45 45 46 46 46 45 45 45 45 45 45 45
46 45 45 45 46 46 45 45 45 46 47 48 49 49 49 48 48 47 47 47 47 48 49 50 50 51 51 52 53 54 54 55 55 55 56 55 55 55 55 55 54 54 54 54 54 53 53 53 53 52 52 52 52 51 50 50 49 49 49 49 49 49 48 48 48 48 47 47 46 45 45 45 45 45 45 45 45 45 45 45 44 44 44 44 45 45
46 45 45 45 45 46 46 45 45 45 46 47 47 48 48 48 48 47 46 46 46 46 47 48 49 50 50 50 52 53 54 54 54 54 54 54 54 54 54 54 54 54 53 53 53 53 53 52 52 52 52 51 51 50 50 49 49 49 49 49 49 49 48 48 48 48 47 47 46 45 44 44 44 44 44 45 45 45 45 45 45 44 44 44 44 45
46 45 45 45 45 45 45 44 44 45 45 45 45 45 46 47 48 48 47 46 46 45 46 46 47 48 49 49 50 51 52 52 52 52 53 53 53 53 53 53 53 53 53 53 53 52 52 52 52 51 51 51 50 50 49 49 49 49 49 49 49 49 48 48 48 48 47 47 46 45 44 44 44 44 44 44 45 45 45 45 45 45 45 44 44 45
46 45 45 45 44 44 43 43 43 44 45 45 45 45 45 46 48 48 48 46 46 46 45 45 45 45 45 46 47 49 50 50 51 51 51 52 52 52 52 52 52 52 52 52 52 52 52 51 51 51 51 50 50 49 49 49 49 49 49 48 48 48 48 48 48 47 47 46 45 45 44 44 44 44 44 44 44 44 45 45 45 45 45 44 44 44
45 45 44 44 43 43 43 43 43 43 44 45 46 47 47 47 47 47 47 46 45 45 45 45 44 43 42 42 43 45 49 49 49 49 49 49 50 51 51 51 51 51 51 51 51 51 52 51 51 50 50 50 49 49 49 49 48 48 48 48 48 48 48 48 47 47 46 46 45 45 44 44 44 44 44 44 44 44 44 44 44 44 44 43 43 43
44 44 43 43 43 43 43 43 43 44 45 46 47 47 46 46 46 46 45 44 44 44 44 43 43 42 41 41 41 43 46 48 49 48 47 46 47 48 50 49 49 49 50 50 50 50 51 50 50 50 50 49 49 49 49 49 48 48 48 48 48 48 47 47 47 46 46 45 45 45 44 44 44 44 44 43 43 43 43 43 43 42 42 42 42 42
44 43 43 42 42 43 43 44 44 45 45 46 46 46 45 45 45 45 45 44 43 43 43 43 42 42 41 42 41 42 44 46 47 47 46 45 44 45 48 48 48 48 49 49 49 49 49 49 49 49 49 49 49 48 48 49 48 48 48 48 48 47 47 47 46 46 45 45 45 45 45 45 44 44 44 43 43 43 42 42 42 42 41 41 41 41
44 44 43 43 42 43 43 44 45 45 45 45 45 45 45 45 45 45 45 44 43 43 43 43 42 41 41 42 42 42 43 45 46 46 45 43 42 42 45 47 48 47 48 48 48 48 48 48 48 49 49 49 48 48 48 48 48 48 48 47 47 47 47 46 46 46 45 45 45 45 45 45 44 44 43 43 43 42 42 42 41 41 41 41 40 40
43 43 43 43 42 42 43 44 44 44 44 44 44 44 45 45 45 45 45 44 44 44 44 45 45 44 43 42 42 42 41 44 45 45 44 41 40 40 41 45 46 47 46 47 47 47 47 48 48 48 48 48 48 48 48 48 48 47 47 47 47 46 46 46 46 45 45 45 45 45 45 45 44 44 43 42 42 42 41 41 41 40 40 40 40 40
43 43 43 42 42 42 42 43 43 43 43 43 43 43 44 44 44 44 44 44 44 44 45 45 45 45 45 43 42 42 40 43 44 44 42 40 39 39 40 44 45 45 45 45 45 46 46 47 48 48 48 48 47 47 47 47 47 47 47 47 46 46 46 46 46 45 45 45 45 45 45 45 44 43 42 42 41 41 41 40 40 40 40 40 40 40
43 44 44 43 42 42 42 43 43 43 43 44 43 43 42 42 43 43 43 44 44 45 45 45 45 45 44 43 41 40 41 42 43 42 41 39 38 38 38 43 44 43 42 42 43 44 45 46 47 47 47 47 47 47 47 47 47 47 47 46 46 46 46 46 45 45 45 45 45 45 45 44 44 43 42 42 41 41 40 40 40 40 40 40 40 39
44 44 44 44 43 42 42 43 44 44 44 44 44 43 42 42 42 42 42 43 43 44 44 44 43 43 42 41 40 40 42 42 42 41 40 38 37 36 36 40 42 41 40 40 40 42 44 45 46 47 47 47 47 47 47 47 47 47 46 46 46 46 46 45 45 45 45 45 45 45 44 44 43 43 42 42 41 40 40 40 40 40 39 39 39 39
44 44 45 45 44 43 43 43 44 45 45 44 43 42 42 42 41 42 42 42 43 43 43 42 41 41 41 40 40 41 43 43 42 41 40 38 37 37 36 39 40 40 39 39 40 41 43 45 45 46 47 47 47 47 47 47 47 46 46 46 46 46 46 45 45 45 45 45 45 44 44 44 43 43 42 41 40 40 40 40 40 39 39 39 39 39
45 45 45 45 45 45 44 44 45 45 45 45 44 43 43 42 42 42 42 43 42 41 39 37 38 39 40 40 40 41 42 43 43 42 40 38 37 36 36 39 40 39 38 38 39 40 42 43 45 46 47 47 47 47 47 46 46 46 46 46 46 45 45 45 45 45 45 45 44 44 44 43 43 42 42 41 40 40 40 40 40 40 40 39 39 39
45 45 45 45 45 45 45 45 45 45 45 45 45 45 45 44 44 44 44 43 41 40 38 38 39 39 39 39 39 40 40 41 42 42 41 39 38 37 37 39 39 39 37 38 38 40 41 42 43 45 46 46 46 46 46 46 46 46 46 46 45 45 45 45 45 45 44 44 44 44 43 43 43 42 41 41 40 40 40 40 40 40 40 40 40 39
46 45 45 45 45 45 45 45 45 45 45 45 44 44 44 44 44 43 41 40 40 39 39 39 38 38 38 39 39 39 40 40 41 41 41 40 38 37 37 39 39 38 37 37 38 39 40 40 42 43 45 46 46 46 46 46 46 45 45 45 45 45 45 45 45 44 44 44 44 43 43 43 43 42 41 41 40 40 40 40 40 40 40 40 40 40
46 46 46 46 46 46 45 45 45 45 45 45 45 45 44 43 42 40 40 39 39 40 40 39 38 37 37 38 38 38 39 40 40 41 41 40 38 36 36 39 39 38 36 36 37 38 39 40 40 41 43 45 45 46 45 45 45 45 45 45 45 45 45 44 44 44 44 44 43 43 43 43 42 42 41 41 40 40 40 40 40 40 40 40 40 40
46 46 46 46 46 46 46 46 46 46 45 45 45 45 44 42 41 40 39 39 40 40 40 39 38 37 37 37 37 38 39 39 39 40 40 40 38 36 36 38 38 37 36 36 36 38 39 39 40 40 40 42 44 45 45 45 45 45 45 45 45 44 44 44 44 44 44 43 43 43 43 43 42 42 41 40 40 40 40 40 40 40 40 40 40 39
45 45 45 45 45 45 46 46 46 46 45 45 45 45 44 42 41 40 39 40 40 41 41 40 38 37 37 37 37 38 38 38 39 39 40 40 38 36 36 37 37 36 34 34 35 37 38 39 39 39 40 40 41 43 45 45 45 45 45 44 44 44 44 44 44 43 43 43 43 42 42 42 41 41 40 40 40 40 40 40 40 40 40 39 39 38
45 45 45 45 45 45 45 46 46 45 45 45 45 45 44 43 42 41 40 41 41 42 41 40 40 38 37 37 36 36 37 38 38 39 40 39 37 36 36 36 36 36 34 34 34 35 36 37 38 38 39 39 40 41 43 44 45 44 44 44 44 44 44 43 43 43 43 42 42 42 41 41 41 40 40 40 40 40 40 40 40 39 39 38 38 37
44 45 45 45 45 45 45 45 45 45 45 45 45 45 45 44 43 43 42 42 42 42 41 41 40 39 37 36 35 35 36 37 38 39 40 38 36 35 36 36 36 36 35 34 34 34 34 36 36 37 38 38 38 39 40 42 43 44 44 44 44 44 43 43 43 43 42 42 42 41 41 41 40 40 40 40 40 40 40 40 39 39 38 37 37 37
44 44 44 45 45 45 45 45 45 45 45 45 45 45 44 44 44 43 43 43 43 42 42 41 40 39 37 36 36 35 36 37 38 40 40 38 36 35 36 36 36 36 36 36 36 35 34 35 35 36 37 37 38 38 38 40 41 42 43 43 43 43 43 43 42 42 42 42 42 41 41 40 40 40 40 40 40 40 40 40 40 39 37 37 36 36
43 43 43 44 44 44 44 45 45 45 45 44 44 44 43 43 43 43 42 42 43 43 42 41 40 39 38 38 38 38 37 38 39 40 40 39 37 36 36 36 36 36 37 38 38 37 36 35 34 34 35 36 37 37 38 38 39 40 41 42 42 42 42 42 42 42 42 42 42 42 41 41 40 40 40 40 40 40 40 40 40 39 37 36 36 36
42 42 43 43 43 43 43 44 44 44 43 43 42 42 42 42 42 42 42 42 42 42 42 41 40 39 39 40 39 38 37 38 39 40 40 39 36 36 36 36 36 36 36 36 36 36 35 34 32 32 33 35 36 37 37 38 38 39 40 40 40 41 41 41 41 41 41 41 41 41 41 41 41 40 40 40 40 40 40 40 40 39 38 37 36 36
41 42 42 42 42 42 42 43 43 42 42 41 41 41 41 41 41 42 42 42 42 42 42 41 40 39 39 39 38 36 36 37 39 40 41 39 37 36 36 36 36 36 35 34 33 32 32 32 31 31 31 33 35 36 36 37 37 38 38 38 39 39 39 40 40 40 40 40 40 40 41 40 41 40 40 40 40 40 40 40 40 39 38 37 36 36
41 41 41 41 41 41 42 42 42 41 41 40 40 40 40 40 40 40 40 40 40 40 40 40 41 40 40 39 37 36 35 36 39 40 41 39 38 37 36 36 36 36 35 34 33 32 30 31 31 31 31 32 34 35 36 36 36 36 36 36 37 37 37 38 38 38 39 39 39 39 39 40 40 40 39 39 39 39 40 40 40 39 39 38 37 36
40 40 40 40 40 40 40 41 41 40 40 40 39 39 39 39 39 39 39 38 38 38 38 38 39 40 40 40 39 38 36 37 39 40 41 40 39 37 36 36 36 37 36 35 35 34 32 31 30 30 30 31 32 32 33 33 34 34 34 35 36 36 36 36 37 37 37 37 38 38 38 38 38 38 38 38 38 39 39 39 39 39 39 39 38 37
39 39 39 40 40 40 40 40 40 39 38 38 38 38 38 38 38 38 37 37 37 37 37 37 37 37 38 39 39 39 38 38 39 40 40 40 40 38 37 37 37 37 37 36 35 34 33 31 30 29 29 30 30 29 30 31 31 31 32 33 34 35 35 36 36 36 36 36 36 36 37 37 36 36 36 37 37 38 38 39 39 39 39 39 38 38
38 38 38 39 39 39 39 39 38 37 37 37 37 36 36 36 36 36 36 36 36 36 36 36 36 36 36 36 37 37 37 38 38 39 40 40 40 39 37 36 36 36 36 35 35 34 33 31 30 29 29 28 27 27 28 28 29 30 31 31 32 33 34 35 35 35 35 36 36 36 36 36 36 36 36 36 36 36 37 37 38 39 39 39 39 38
37 37 37 38 38 38 37 37 37 37 36 36 36 35 35 34 34 33 33 33 33 33 33 33 33 34 34 35 35 36 36 37 38 39 39 39 38 37 36 36 35 35 35 35 35 34 33 32 31 30 30 28 27 26 26 27 28 29 29 30 31 31 33 33 34 34 35 35 35 36 36 36 36 36 36 36 36 36 36 36 37 38 38 38 38 38
36 36 36 36 36 36 36 36 36 36 35 35 35 34 33 33 32 32 31 31 31 31 31 31 31 31 31 32 33 34 36 37 38 38 38 37 36 36 35 34 34 34 34 34 34 34 33 32 32 31 31 30 28 26 25 26 27 28 29 29 29 29 31 32 33 33 34 34 34 35 35 35 35 35 36 36 36 36 35 35 36 36 37 37 37 37
36 36 35 35 35 35 35 35 35 35 35 34 34 33 33 32 32 31 31 31 31 31 31 30 30 30 30 30 31 31 33 34 35 36 36 34 35 36 34 34 33 33 33 33 33 33 33 32 32 31 31 30 28 27 26 25 26 27 28 28 28 28 30 31 32 32 33 33 34 34 34 34 35 35 34 35 35 35 35 35 35 36 36 36 36 36
35 34 33 33 33 33 33 33 34 34 34 34 33 33 32 32 31 31 31 31 31 31 31 30 30 29 29 28 29 29 30 31 32 34 34 34 35 35 35 33 33 33 32 32 32 32 32 32 32 31 30 29 27 26 25 25 26 27 27 27 27 28 29 30 31 31 32 32 33 33 33 33 33 33 34 33 34 35 36 36 36 36 36 36 36 36
33 32 31 31 31 32 32 33 34 34 34 33 32 32 32 31 31 31 31 30 30 31 31 31 31 30 29 28 28 28 29 30 31 31 32 33 34 34 33 32 32 32 32 31 31 31 31 31 31 30 29 28 27 26 25 25 25 26 27 27 27 27 27 27 29 30 31 32 33 33 33 33 33 33 33 34 35 35 36 36 36 36 36 36 36 36
31 31 31 31 31 32 33 33 33 33 33 32 32 31 31 31 31 31 31 31 31 31 31 31 31 30 29 28 27 27 27 28 29 31 31 32 33 33 33 32 32 31 31 31 30 30 30 30 30 29 28 28 27 26 25 24 24 25 25 26 26 26 25 27 27 29 30 31 32 33 33 33 33 33 33 34 34 33 33 34 35 35 36 36 36 35
30 30 30 30 31 31 32 32 32 32 32 31 31 31 31 32 32 32 31 31 31 31 30 31 30 30 29 28 27 27 27 27 27 28 29 30 31 31 32 31 31 31 31 30 29 29 28 28 28 27 27 27 27 26 25 24 24 24 24 26 26 25 25 27 27 28 28 30 31 32 33 33 33 33 32 32 32 32 32 32 33 33 34 35 35 34
30 30 30 30 31 31 31 31 31 31 31 31 31 31 31 32 32 32 31 31 31 30 31 31 30 30 28 27 27 27 26 26 26 26 26 27 28 29 30 30 30 30 29 29 28 28 27 27 27 26 25 25 26 26 25 24 23 23 24 25 25 25 25 26 27 27 28 29 30 31 32 33 32 32 31 31 31 31 31 31 32 32 32 33 33 33
29 29 30 30 31 31 31 31 31 31 31 31 31 31 31 32 32 32 31 31 31 30 30 30 30 29 28 28 27 27 27 26 25 25 25 26 26 27 27 27 27 28 27 27 27 27 27 27 27 26 25 24 24 24 24 24 23 23 24 24 24 24 24 25 26 26 27 28 29 30 31 32 31 30 30 30 30 31 31 31 31 31 32 32 32 32
29 29 29 30 30 30 30 30 31 30 30 30 30 30 31 31 31 31 31 30 30 30 30 30 29 29 28 28 28 27 27 26 25 25 25 25 25 26 25 25 26 26 26 26 26 26 27 28 28 27 25 24 24 23 23 23 23 23 23 24 24 24 23 24 25 26 27 27 29 31 31 31 30 29 28 28 29 29 29 29 30 30 31 31 31 31
29 29 29 29 29 29 29 30 30 30 30 29 29 29 30 31 31 31 30 30 29 29 29 29 29 28 28 27 27 27 27 26 25 24 24 24 24 25 25 25 24 24 24 24 24 25 25 26 26 26 25 24 23 23 22 22 22 23 23 24 24 23 23 23 24 25 25 27 30 31 31 29 28 28 27 27 27 27 27 27 28 28 29 29 29 30
29 29 29 29 29 29 29 29 29 29 29 29 29 29 29 29 30 29 29 29 29 29 28 28 28 28 27 27 27 27 26 25 24 24 23 23 24 24 24 24 24 23 22 22 22 22 23 23 24 24 25 25 24 23 22 22 22 22 23 23 23 23 23 23 24 24 25 27 28 30 31 29 28 27 27 26 26 25 25 26 26 27 27 28 28 28
29 29 29 29 29 29 29 29 29 29 29 29 28 28 28 28 28 28 28 28 28 28 27 27 27 27 27 26 26 26 25 24 23 23 23 23 23 24 24 23 23 22 22 22 21 21 21 20 21 21 22 24 25 24 22 22 22 22 22 22 23 23 23 23 23 24 25 25 27 28 29 28 27 26 26 25 25 24 24 24 24 25 26 26 27 27